7 * 24
多渠道服务支持
STARLINK-11372是美国太空探索技术公司星链星座的一员,于2024年10月18日发射入轨,属于低轨通信卫星,承担卫星互联网组网任务。星链系统通过大规模部署低轨卫星,为全球提供高速宽带服务,该卫星的发射进一步完善了星链星座的覆盖能力与服务容量,持续推进星链网络的规模化部署。
美国
(US)
| 数据来源 | 国际轨道数据 |
| 星历时间: | 2026-09-10T04:02:07+0800 1天前 查看轨道信息 |
| 半长轴: | 6737.889km |
| 偏心率: | 0.0001012 |
| 轨道倾角: | 53.158° |
| 近地点辐角 | 76.997° |
| 升交点赤经 | 108.394° |
| 平近点角 | 283.116° |
| 近地点: | 359.07km |
| 远地点: | 360.434km |
| 周期: | 91.737分钟 |
| 每日圈数: | 15.697012 |